Flag for United Arab Emirates Weather past 2 weeks in Sharjah, Sharjah, United Arab Emirates

Now
75 °F

Sunny.


Feels Like: 77 °F
Forecast: 76 / 94 °F
Wind: 10 mph from South

Location: Sharjah International Airport

Current Time: Apr 26, 2015 at 7:48:33 AM

Latest Report: Apr 26, 2015 at 7:00 AM


Visibility: 10 mi

Pressure: 29.83 "Hg

Humidity: 74%

Dew point: 66 °F

Location of SharjahLocation

Historic Weather in Sharjah — Graph

°F

Sharjah temperature yesterday

Maximum temperature yesterday: 95 °F (at 12:00 PM)
Minimum temperature yesterday: 75 °F (at 6:00 AM)
Average temperature yesterday: 85 °F

Past Weeks' High & Low Weather Summary

 TemperatureHumidityPressure
High106 °F (Apr 12, 2:00 PM)83% (Apr 26, 6:00 AM)30.07 "Hg (Apr 26, 6:00 AM)
Low64 °F (Apr 21, 6:00 AM)8% (Apr 11, 12:00 PM)29.74 "Hg (Apr 18, 6:00 PM)
Average84 °F41%29.85 "Hg
* Reported Apr 11 6:00 AM — Apr 26 6:00 AM, Sharjah, Weather by CustomWeather, © 2015

Note: Actual official high and low records may vary slightly from our data, if they occured in-between our weather recording intervals... More about our weather records

Advertising

Sharjah weather history for previous 24 hours

 ConditionsComfort  
Time TempWeatherWind HumidityBarometerVisibility
6:00 AM
Sun, Apr 26
73 °FSunny.8 mph83%29.83 "Hg10 mi
5:00 AM75 °FClear.10 mph78%29.80 "Hg10 mi
4:00 AM75 °FClear.10 mph78%29.80 "Hg10 mi
3:00 AM75 °FClear.10 mph78%29.80 "Hg10 mi
2:00 AM77 °FClear.12 mph79%29.80 "Hg10 mi
1:00 AM77 °FClear.12 mph79%29.80 "Hg10 mi
12:00 AM79 °FClear.9 mph74%29.83 "Hg10 mi
11:00 PM
Sat, Apr 25
81 °FClear.8 mph70%29.83 "Hg10 mi
10:00 PM81 °FClear.8 mph70%29.83 "Hg10 mi
9:00 PM82 °FClear.9 mph66%29.80 "Hg5 mi
8:00 PM84 °FClear.10 mph62%29.77 "Hg5 mi
7:00 PM84 °FDuststorm.8 mph58%29.77 "Hg4 mi
6:00 PM86 °FDuststorm.10 mph55%29.74 "Hg4 mi
5:00 PM88 °FDuststorm.14 mph49%29.74 "Hg4 mi
4:00 PM90 °FDuststorm.13 mph43%29.74 "Hg3 mi
3:00 PM90 °FClear.14 mph46%29.77 "Hg4 mi
2:00 PM91 °FClear.14 mph44%29.77 "Hg4 mi
1:00 PM95 °FClear.12 mph28%29.80 "Hg4 mi
12:00 PM95 °FSunny.10 mph30%29.83 "Hg10 mi
11:00 AM91 °FSunny.8 mph36%29.83 "Hg10 mi
10:00 AM88 °FSunny.10 mph31%29.83 "Hg10 mi
8:00 AM86 °FSunny.2 mph24%29.83 "Hg10 mi
7:00 AM75 °FSunny.1 mph29%29.80 "Hg10 mi
Weather by CustomWeather, © 2015

See weather overviewHow to use our weather pages